Time,TemperatureF,DewpointF,PressureIn,WindDirection,WindDirectionDegrees,WindSpeedMPH,WindSpeedGustMPH,Humidity,HourlyPrecipIn,Conditions,Clouds,dailyrainin,SolarRadiationWatts/m^2,SoftwareType,DateUTC
2013-07-09 00:02:00,68.0,67.0,30.03,South,187,0.0,-999.0,96,-99.99,,,-99.99,0.000000,,2013-07-09 04:02:00,
2013-07-09 00:43:00,67.0,66.0,30.03,South,187,0.0,-999.0,97,-99.99,,,-99.99,0.000000,,2013-07-09 04:43:00,
2013-07-09 00:53:00,67.0,66.0,30.03,South,187,0.0,-999.0,97,-99.99,,,-99.99,0.000000,,2013-07-09 04:53:00,
2013-07-09 01:02:00,67.0,66.0,30.03,South,187,0.0,-999.0,98,-99.99,,,-99.99,0.000000,,2013-07-09 05:02:00,
2013-07-09 01:42:00,67.0,67.0,30.03,ENE,75,0.0,-999.0,99,-99.99,,,-99.99,0.000000,,2013-07-09 05:42:00,
2013-07-09 01:52:00,67.0,67.0,30.03,ENE,75,0.0,-999.0,100,-99.99,,,-99.99,0.000000,,2013-07-09 05:52:00,
2013-07-09 02:01:00,66.0,66.0,30.03,ENE,75,0.0,-999.0,100,-99.99,,,-99.99,0.000000,,2013-07-09 06:01:00,
2013-07-09 02:11:00,66.0,66.0,30.03,ENE,75,0.0,-999.0,100,-99.99,,,-99.99,0.000000,,2013-07-09 06:11:00,
2013-07-09 02:22:00,66.0,66.0,30.02,NE,51,0.0,-999.0,100,-99.99,,,-99.99,0.000000,,2013-07-09 06:22:00,
2013-07-09 02:34:00,65.0,65.0,30.02,NE,51,0.0,-999.0,100,-99.99,,,-99.99,0.000000,,2013-07-09 06:34:00,
2013-07-09 02:43:00,65.0,65.0,30.02,NE,51,0.0,-999.0,100,-99.99,,,-99.99,0.000000,,2013-07-09 06:43:00,
2013-07-09 02:53:00,65.0,65.0,30.02,NE,51,0.0,-999.0,100,-99.99,,,-99.99,0.000000,,2013-07-09 06:53:00,
2013-07-09 03:02:00,65.0,65.0,30.02,NE,51,0.0,-999.0,100,-99.99,,,-99.99,0.000000,,2013-07-09 07:02:00,
2013-07-09 03:12:00,65.0,65.0,30.02,NE,51,0.0,-999.0,100,-99.99,,,-99.99,0.000000,,2013-07-09 07:12:00,
2013-07-09 03:22:00,65.0,65.0,30.03,NE,51,0.0,-999.0,100,-99.99,,,-99.99,0.000000,,2013-07-09 07:22:00,
2013-07-09 03:34:00,65.0,65.0,30.02,NE,51,0.0,-999.0,100,-99.99,,,-99.99,0.000000,,2013-07-09 07:34:00,
2013-07-09 03:53:00,64.0,64.0,30.03,NE,51,0.0,-999.0,100,-99.99,,,-99.99,0.000000,,2013-07-09 07:53:00,
2013-07-09 04:11:00,64.0,64.0,30.03,NE,51,0.0,-999.0,100,-99.99,,,-99.99,0.000000,,2013-07-09 08:11:00,
2013-07-09 04:22:00,64.0,64.0,30.03,NE,51,0.0,-999.0,100,-99.99,,,-99.99,0.000000,,2013-07-09 08:22:00,
2013-07-09 04:43:00,64.0,64.0,30.03,NE,51,0.0,-999.0,100,-99.99,,,-99.99,0.000000,,2013-07-09 08:43:00,
2013-07-09 04:52:00,64.0,64.0,30.03,NE,51,0.0,-999.0,100,-99.99,,,-99.99,0.000000,,2013-07-09 08:52:00,
2013-07-09 05:02:00,64.0,64.0,30.03,NE,51,0.0,-999.0,100,-99.99,,,-99.99,0.000000,,2013-07-09 09:02:00,
2013-07-09 05:42:00,64.0,64.0,30.04,NE,51,0.0,-999.0,100,-99.99,,,-99.99,0.000000,,2013-07-09 09:42:00,
2013-07-09 05:53:00,64.0,64.0,30.04,NE,51,0.0,-999.0,100,-99.99,,,-99.99,0.000000,,2013-07-09 09:53:00,
2013-07-09 06:01:00,64.0,64.0,30.04,NE,51,0.0,-999.0,100,-99.99,,,-99.99,5.000000,,2013-07-09 10:01:00,
2013-07-09 06:11:00,64.0,64.0,30.05,NE,51,0.0,-999.0,100,-99.99,,,-99.99,7.000000,,2013-07-09 10:11:00,
2013-07-09 06:42:00,64.0,64.0,30.06,NE,51,0.0,-999.0,100,-99.99,,,-99.99,25.000000,,2013-07-09 10:42:00,
2013-07-09 06:52:00,64.0,64.0,30.06,NE,51,0.0,-999.0,100,-99.99,,,-99.99,33.000000,,2013-07-09 10:52:00,
2013-07-09 07:02:00,64.0,64.0,30.06,NE,51,0.0,-999.0,100,-99.99,,,-99.99,39.000000,,2013-07-09 11:02:00,
2013-07-09 07:11:00,64.0,64.0,30.06,NE,51,0.0,-999.0,100,-99.99,,,-99.99,39.000000,,2013-07-09 11:11:00,
2013-07-09 07:34:00,64.0,64.0,30.06,NE,51,0.0,-999.0,100,-99.99,,,-99.99,88.000000,,2013-07-09 11:34:00,
2013-07-09 07:42:00,64.0,64.0,30.06,NE,51,0.0,-999.0,100,-99.99,,,-99.99,77.000000,,2013-07-09 11:42:00,
2013-07-09 07:53:00,64.0,64.0,30.06,NE,51,0.0,-999.0,100,-99.99,,,-99.99,84.000000,,2013-07-09 11:53:00,
2013-07-09 08:02:00,64.0,64.0,30.07,NE,51,0.0,-999.0,100,-99.99,,,-99.99,72.000000,,2013-07-09 12:02:00,
2013-07-09 08:12:00,64.0,64.0,30.07,NE,51,0.0,-999.0,100,-99.99,,,-99.99,60.000000,,2013-07-09 12:12:00,
2013-07-09 08:33:00,65.0,65.0,30.08,ENE,69,0.0,-999.0,100,-99.99,,,-99.99,42.000000,,2013-07-09 12:33:00,
2013-07-09 08:43:00,64.0,64.0,30.08,ESE,122,0.0,-999.0,100,-99.99,,,-99.99,58.000000,,2013-07-09 12:43:00,
2013-07-09 08:52:00,65.0,65.0,30.08,ESE,122,0.0,-999.0,100,-99.99,,,-99.99,51.000000,,2013-07-09 12:52:00,
2013-07-09 09:22:00,65.0,65.0,30.08,ESE,122,0.0,-999.0,100,-99.99,,,-99.99,181.000000,,2013-07-09 13:22:00,
2013-07-09 09:53:00,66.0,66.0,30.08,ESE,122,0.0,-999.0,100,-99.99,,,-99.99,100.000000,,2013-07-09 13:53:00,
2013-07-09 10:34:00,66.0,66.0,30.06,ESE,108,0.0,-999.0,100,-99.99,,,-99.99,171.000000,,2013-07-09 14:34:00,
2013-07-09 10:43:00,67.0,67.0,30.06,ESE,108,0.0,-999.0,99,-99.99,,,-99.99,234.000000,,2013-07-09 14:43:00,
2013-07-09 10:53:00,67.0,66.0,30.07,East,97,0.0,-999.0,98,-99.99,,,-99.99,220.000000,,2013-07-09 14:53:00,
2013-07-09 11:33:00,68.0,67.0,30.08,East,97,0.0,-999.0,96,-99.99,,,-99.99,202.000000,,2013-07-09 15:33:00,
2013-07-09 12:43:00,70.0,67.0,30.08,East,97,0.0,-999.0,90,-99.99,,,-99.99,360.000000,,2013-07-09 16:43:00,
2013-07-09 12:52:00,70.0,67.0,30.08,East,97,0.0,-999.0,90,-99.99,,,-99.99,255.000000,,2013-07-09 16:52:00,
2013-07-09 13:53:00,70.0,67.0,30.07,East,97,0.0,-999.0,89,-99.99,,,-99.99,142.000000,,2013-07-09 17:53:00,
2013-07-09 14:43:00,71.0,68.0,30.06,East,97,0.0,-999.0,90,-99.99,,,-99.99,262.000000,,2013-07-09 18:43:00,
2013-07-09 14:52:00,72.0,68.0,30.06,East,97,0.0,-999.0,88,-99.99,,,-99.99,216.000000,,2013-07-09 18:52:00,
2013-07-09 15:01:00,72.0,68.0,30.06,East,97,0.0,-999.0,87,-99.99,,,-99.99,181.000000,,2013-07-09 19:01:00,
2013-07-09 15:11:00,72.0,68.0,30.06,East,97,0.0,-999.0,86,-99.99,,,-99.99,243.000000,,2013-07-09 19:11:00,
2013-07-09 15:52:00,73.0,69.0,30.05,East,97,0.0,-999.0,87,-99.99,,,-99.99,102.000000,,2013-07-09 19:52:00,
2013-07-09 16:02:00,72.0,68.0,30.05,East,97,0.0,-999.0,87,-99.99,,,-99.99,135.000000,,2013-07-09 20:02:00,
2013-07-09 16:11:00,72.0,68.0,30.05,East,97,0.0,-999.0,88,-99.99,,,-99.99,98.000000,,2013-07-09 20:11:00,
2013-07-09 16:22:00,73.0,69.0,30.06,East,97,0.0,-999.0,87,-99.99,,,-99.99,120.000000,,2013-07-09 20:22:00,
2013-07-09 16:32:00,73.0,69.0,30.06,East,97,0.0,-999.0,88,-99.99,,,-99.99,93.000000,,2013-07-09 20:32:00,
2013-07-09 16:43:00,72.0,68.0,30.06,East,97,0.0,-999.0,88,-99.99,,,-99.99,88.000000,,2013-07-09 20:43:00,
2013-07-09 16:52:00,72.0,68.0,30.05,East,97,0.0,-999.0,88,-99.99,,,-99.99,69.000000,,2013-07-09 20:52:00,
2013-07-09 17:01:00,72.0,68.0,30.05,East,97,0.0,-999.0,88,-99.99,,,-99.99,53.000000,,2013-07-09 21:01:00,
2013-07-09 17:32:00,73.0,69.0,30.03,East,97,0.0,-999.0,88,-99.99,,,-99.99,227.000000,,2013-07-09 21:32:00,
2013-07-09 17:42:00,73.0,69.0,30.03,East,97,0.0,-999.0,88,-99.99,,,-99.99,125.000000,,2013-07-09 21:42:00,
2013-07-09 17:52:00,72.0,68.0,30.03,East,97,0.0,-999.0,87,-99.99,,,-99.99,76.000000,,2013-07-09 21:52:00,
2013-07-09 18:01:00,72.0,68.0,30.03,East,97,0.0,-999.0,88,-99.99,,,-99.99,56.000000,,2013-07-09 22:01:00,
2013-07-09 18:11:00,72.0,69.0,30.03,East,97,0.0,-999.0,89,-99.99,,,-99.99,67.000000,,2013-07-09 22:11:00,
2013-07-09 18:42:00,72.0,69.0,30.03,East,97,0.0,-999.0,89,-99.99,,,-99.99,123.000000,,2013-07-09 22:42:00,
2013-07-09 18:53:00,72.0,68.0,30.03,East,97,0.0,-999.0,88,-99.99,,,-99.99,163.000000,,2013-07-09 22:53:00,
2013-07-09 19:02:00,71.0,67.0,30.03,East,97,0.0,-999.0,87,-99.99,,,-99.99,128.000000,,2013-07-09 23:02:00,
2013-07-09 19:33:00,71.0,67.0,30.03,SE,131,0.0,-999.0,87,-99.99,,,-99.99,77.000000,,2013-07-09 23:33:00,
2013-07-09 19:43:00,70.0,66.0,30.03,SE,131,0.0,-999.0,88,-99.99,,,-99.99,51.000000,,2013-07-09 23:43:00,
2013-07-09 19:53:00,70.0,66.0,30.02,SE,131,0.0,-999.0,88,-99.99,,,-99.99,35.000000,,2013-07-09 23:53:00,
2013-07-09 20:01:00,70.0,66.0,30.03,SE,131,0.0,-999.0,88,-99.99,,,-99.99,26.000000,,2013-07-10 00:01:00,
2013-07-09 20:11:00,70.0,67.0,30.03,SE,131,0.0,-999.0,89,-99.99,,,-99.99,16.000000,,2013-07-10 00:11:00,
2013-07-09 20:22:00,69.0,66.0,30.03,SE,131,0.0,-999.0,89,-99.99,,,-99.99,9.000000,,2013-07-10 00:22:00,
2013-07-09 20:42:00,69.0,66.0,30.04,SE,131,0.0,-999.0,91,-99.99,,,-99.99,0.000000,,2013-07-10 00:42:00,
2013-07-09 20:52:00,69.0,66.0,30.05,SE,131,0.0,-999.0,91,-99.99,,,-99.99,0.000000,,2013-07-10 00:52:00,
2013-07-09 21:01:00,69.0,66.0,30.05,SE,131,0.0,-999.0,91,-99.99,,,-99.99,0.000000,,2013-07-10 01:01:00,
2013-07-09 21:11:00,69.0,66.0,30.05,SE,131,0.0,-999.0,91,-99.99,,,-99.99,0.000000,,2013-07-10 01:11:00,
2013-07-09 21:22:00,68.0,65.0,30.05,SE,131,0.0,-999.0,91,-99.99,,,-99.99,0.000000,,2013-07-10 01:22:00,
2013-07-09 21:53:00,68.0,65.0,30.05,SE,131,0.0,-999.0,91,-99.99,,,-99.99,0.000000,,2013-07-10 01:53:00,
2013-07-09 22:11:00,68.0,65.0,30.05,WNW,287,0.0,-999.0,91,-99.99,,,-99.99,0.000000,,2013-07-10 02:11:00,
2013-07-09 22:53:00,68.0,65.0,30.05,West,274,0.0,-999.0,91,-99.99,,,-99.99,0.000000,,2013-07-10 02:53:00,
2013-07-09 23:01:00,68.0,65.0,30.05,West,274,0.0,-999.0,91,-99.99,,,-99.99,0.000000,,2013-07-10 03:01:00,
2013-07-09 23:22:00,67.0,64.0,30.05,West,274,0.0,-999.0,91,-99.99,,,-99.99,0.000000,,2013-07-10 03:22:00,
2013-07-09 23:52:00,67.0,64.0,30.05,West,274,0.0,-999.0,91,-99.99,,,-99.99,0.000000,,2013-07-10 03:52:00,